This is the latest recevied weather packets stored in our database for station/object ER1XDX-13. If no packets are shown the sender has not sent any weather packets the latest 1 day(s).
| Time | Temp. | Humidity | Pressure | Rain* | Wind** | Luminosity | Snow |
|---|---|---|---|---|---|---|---|
| 1778073464 | 24.44° C | 28% | 1002.4 hPa | - | - | - | - |
| 1778072564 | 24.44° C | 28% | 1002.5 hPa | - | - | - | - |
| 1778071664 | 24.44° C | 29% | 1002.4 hPa | - | - | - | - |
| 1778064463 | 23.89° C | 31% | 1003.5 hPa | - | - | - | - |
| 1778062663 | 23.89° C | 31% | 1003.6 hPa | - | - | - | - |
| 1778061763 | 23.89° C | 31% | 1003.7 hPa | - | - | - | - |
| 1778060863 | 23.89° C | 30% | 1003.8 hPa | - | - | - | - |
| 1778059963 | 23.89° C | 31% | 1003.9 hPa | - | - | - | - |
| 1778059063 | 23.89° C | 32% | 1004 hPa | - | - | - | - |
| 1778053662 | 23.89° C | 30% | 1004 hPa | - | - | - | - |
| 1778052762 | 24.44° C | 30% | 1004.1 hPa | - | - | - | - |
| 1778051862 | 24.44° C | 30% | 1004.1 hPa | - | - | - | - |
| 1778050962 | 24.44° C | 30% | 1004 hPa | - | - | - | - |
| 1778050062 | 24.44° C | 30% | 1004 hPa | - | - | - | - |
| 1778049161 | 24.44° C | 30% | 1003.9 hPa | - | - | - | - |
| 1778048261 | 24.44° C | 30% | 1004 hPa | - | - | - | - |
| 1778047361 | 24.44° C | 30% | 1004.1 hPa | - | - | - | - |
| 1778046461 | 23.89° C | 27% | 1004 hPa | - | - | - | - |
| 1778045561 | 23.89° C | 27% | 1004.1 hPa | - | - | - | - |
| 1778041960 | 23.89° C | 28% | 1003.9 hPa | - | - | - | - |
| 1778041060 | 23.33° C | 28% | 1003.8 hPa | - | - | - | - |
| 1778040160 | 23.33° C | 28% | 1003.8 hPa | - | - | - | - |
| 1778039260 | 22.78° C | 28% | 1003.7 hPa | - | - | - | - |
| 1778038360 | 22.22° C | 29% | 1003.7 hPa | - | - | - | - |
| 1778037459 | 21.67° C | 29% | 1003.6 hPa | - | - | - | - |
* Rain since midnight (hover to see other rain measurements)
** Current wind speed in m/s (hover to see current wind gust speed)